EW2549 Weather Reports


time (UTC)temp
C
wind
direction
speed
KPH
gust
KPH
rain 1hr
cm
rain 24hr
cm
rain mn
cm
humidity
%
barometer
mb
20260503010002 20 83 0.0 0.0 0.00 0.00 0.00 9 1010.5
20260503003106 22 93 0.0 4.8 0.00 0.00 0.00 8 1010.6
20260503001558 22 69 0.0 1.6 0.00 0.00 0.00 8 1010.8
20260503000104 22 94 0.0 8.0 0.00 0.00 0.00 9 1010.8
20260502234608 22 107 0.0 6.4 0.00 0.00 0.00 9 1011.0
20260502233052 22 54 0.0 9.7 0.00 0.00 0.00 9 1011.0
20260502231552 23 153 0.0 11.3 0.00 0.00 0.00 9 1011.1
20260502230052 23 100 0.0 9.7 0.00 0.00 0.00 9 1011.2
20260502224549 23 111 0.0 11.3 0.00 0.00 0.00 9 1011.3
20260502223058 23 109 0.0 12.9 0.00 0.00 0.00 9 1011.6
20260502221547 23 103 0.0 6.4 0.00 0.00 0.00 10 1011.6
20260502220047 22 94 1.6 11.3 0.00 0.00 0.00 10 1012.0
20260502214600 23 99 0.0 9.7 0.00 0.00 0.00 11 1012.2
20260502213047 23 169 1.6 16.1 0.00 0.00 0.00 10 1012.6
20260502211536 23 124 0.0 11.3 0.00 0.00 0.00 11 1012.9
20260502210033 22 128 1.6 11.3 0.00 0.00 0.00 11 1013.2
20260502204537 22 186 0.0 8.0 0.00 0.00 0.00 13 1013.5
20260502203043 21 118 0.0 6.4 0.00 0.00 0.00 15 1013.6
20260502201527 21 68 0.0 11.3 0.00 0.00 0.00 14 1013.9
20260502200024 21 98 0.0 8.0 0.00 0.00 0.00 15 1014.0
20260502194527 21 102 0.0 12.9 0.00 0.00 0.00 15 1014.3
20260502193021 21 180 4.8 14.5 0.00 0.00 0.00 17 1014.5
20260502191519 21 98 1.6 9.7 0.00 0.00 0.00 17 1014.8
20260502190020 20 94 0.0 8.0 0.00 0.00 0.00 16 1015.1
20260502184515 21 200 4.8 11.3 0.00 0.00 0.00 17 1015.4
20260502183011 20 121 0.0 8.0 0.00 0.00 0.00 18 1015.6
20260502181509 20 105 0.0 9.7 0.00 0.00 0.00 18 1015.8
20260502163105 17 211 1.6 9.7 0.00 0.00 0.00 21 1017.0
20260502161559 16 100 1.6 9.7 0.00 0.00 0.00 21 1017.1
20260502151533 13 151 0.0 0.0 0.00 0.00 0.00 30 1017.9
20260502123008 1 9 0.0 0.0 0.00 0.00 0.00 64 1018.1
20260502121505 1 9 0.0 0.0 0.00 0.00 0.00 63 1017.9
20260502114608 1 9 0.0 0.0 0.00 0.00 0.00 58 1017.7
20260502113127 2 9 0.0 0.0 0.00 0.00 0.00 58 1017.7
20260502110055 2 9 0.0 0.0 0.00 0.00 0.00 57 1017.5
20260502104552 2 245 0.0 0.0 0.00 0.00 0.00 57 1017.5
20260502103050 3 245 0.0 0.0 0.00 0.00 0.00 55 1017.6
20260502101548 3 245 0.0 0.0 0.00 0.00 0.00 53 1017.6
20260502071531 4 336 0.0 0.0 0.00 0.00 0.00 50 1018.1
20260502070028 5 336 0.0 0.0 0.00 0.00 0.00 49 1018.3
20260502064529 5 336 0.0 0.0 0.00 0.00 0.00 49 1018.3
20260502063024 5 340 0.0 0.0 0.00 0.00 0.00 47 1018.3
20260502061521 5 360 0.0 0.0 0.00 0.00 0.00 46 1018.3
20260502060018 6 360 0.0 0.0 0.00 0.00 0.00 44 1018.4
20260502054518 6 360 0.0 0.0 0.00 0.00 0.00 44 1018.3
20260502053018 6 5 0.0 0.0 0.00 0.00 0.00 41 1018.4
20260502051524 6 5 0.0 0.0 0.00 0.00 0.00 42 1018.4
20260502050017 6 5 0.0 0.0 0.00 0.00 0.00 43 1018.5
20260502044516 6 5 0.0 0.0 0.00 0.00 0.00 42 1018.5
20260502043016 6 5 0.0 0.0 0.00 0.00 0.00 42 1018.4
20260502041516 6 5 0.0 0.0 0.00 0.00 0.00 42 1018.1
20260502040116 6 5 0.0 0.0 0.00 0.00 0.00 42 1018.0
20260502034516 7 5 0.0 0.0 0.00 0.00 0.00 39 1017.7
20260502033014 7 5 0.0 0.0 0.00 0.00 0.00 36 1017.5
20260502031514 8 5 0.0 0.0 0.00 0.00 0.00 35 1017.2
20260502030014 9 5 0.0 0.0 0.00 0.00 0.00 33 1017.0
20260502024522 10 5 0.0 0.0 0.00 0.00 0.00 32 1016.8
20260502023016 11 5 0.0 0.0 0.00 0.00 0.00 29 1016.6
20260502021512 12 5 0.0 0.0 0.00 0.00 0.00 27 1016.4
20260502020013 12 5 0.0 0.0 0.00 0.00 0.00 25 1016.3
20260502014512 13 5 0.0 0.0 0.00 0.00 0.00 23 1016.2
20260502013013 15 5 0.0 0.0 0.00 0.00 0.00 22 1016.0
20260502011511 15 5 0.0 0.0 0.00 0.00 0.00 20 1015.8